Weather History for Grand Island, NE

Change the Weather History Date:

Sunday, December 25, 2011

  Actual Average Record
Temperature  
Mean Temperature 38 °F 25 °F  
Max Temperature 50 °F 35 °F 62 °F (1999)
Min Temperature 25 °F 15 °F -16 °F (1983)
Degree Days  
Heating Degree Days 27 40  
Month to date heating degree days 946 949  
Since 1 July heating degree days 2189 2279  
Cooling Degree Days 0 0  
Month to date cooling degree days 0 0  
Year to date cooling degree days 1112 1034  
Moisture  
Dew Point 21 °F    
Average Humidity 52    
Maximum Humidity 75    
Minimum Humidity 29    
Precipitation  
Precipitation 0.00 in 0.02 in 0.51 in (2009)
Month to date precipitation 1.11 0.53  
Year to date precipitation 27.16 26.56  
Snow  
Snow 0.00 in 0.20 in 7.80 in (2009)
Month to date snowfall 8.3 4.1  
Since 1 July snowfall 8.3 8.3  
Snow Depth 0.00 in    
Sea Level Pressure  
Sea Level Pressure 30.41 in    
Wind  
Wind Speed 8 mph (West)    
Max Wind Speed 15 mph    
Max Gust Speed 18 mph    
Visibility 10 miles    
Events      
T = Trace of Precipitation, MM = Missing Value Source: NWS Daily Summary

Daily Weather History Graph

Daily Weather History Graph

Search for Another Location

Airport:

Trip Planner

Search our weather history database for the weather conditions in past years. The results will help you decide how hot, cold, wet, or windy it might be!

Date:

Astronomy

Dec. 25, 2011 Rise Set
Actual Time 7:56 AM CST 5:10 PM CST
Civil Twilight 7:25 AM CST 5:41 PM CST
Nautical Twilight 6:50 AM CST 6:16 PM CST
Astronomical Twilight 6:17 AM CST 6:49 PM CST
Moon 8:35 AM CST (12/25) 6:33 PM CST (12/25)
Length of Visible Light 10h 16m
Length of Day
9h 14m
New Moon, 1% of the Moon is Illuminated
Dec 25
New Moon
Jan 1
First Quarter
Jan 9
Full
Jan 16
Last Quarter
Jan 23
New

Hourly Weather History & Observations

Time (CST) Temp. Windchill Dew Point Humidity Pressure Visibility Wind Dir Wind Speed Gust Speed Precip Events Conditions
12:53 AM 28.0 °F 20.8 °F 19.9 °F 72% 30.39 in 10.0 mi West 6.9 mph - N/A   Clear
1:53 AM 28.0 °F 19.3 °F 19.9 °F 72% 30.38 in 10.0 mi West 9.2 mph - N/A   Clear
2:53 AM 28.0 °F 18.6 °F 19.0 °F 69% 30.39 in 10.0 mi WNW 10.4 mph - N/A   Clear
3:53 AM 27.0 °F 18.7 °F 19.0 °F 72% 30.40 in 10.0 mi WNW 8.1 mph - N/A   Clear
4:53 AM 27.0 °F 17.3 °F 19.0 °F 72% 30.40 in 10.0 mi WNW 10.4 mph - N/A   Clear
5:53 AM 26.6 °F 17.5 °F 19.4 °F 74% 30.37 in 10.0 mi WNW 9.2 mph - N/A   Clear
6:53 AM 26.1 °F 17.6 °F 19.0 °F 75% 30.44 in 10.0 mi WNW 8.1 mph - N/A   Clear
7:53 AM 25.0 °F 16.3 °F 18.0 °F 75% 30.48 in 10.0 mi WNW 8.1 mph - N/A   Clear
8:53 AM 30.0 °F 23.2 °F 21.0 °F 69% 30.49 in 10.0 mi WNW 6.9 mph - N/A   Clear
9:53 AM 36.0 °F 28.5 °F 23.0 °F 59% 30.52 in 10.0 mi NW 10.4 mph - N/A   Clear
10:53 AM 39.9 °F 32.9 °F 23.0 °F 51% 30.52 in 10.0 mi NNW 11.5 mph - N/A   Clear
11:53 AM 44.1 °F 39.5 °F 23.0 °F 43% 30.51 in 10.0 mi NNW 8.1 mph - N/A   Clear
12:53 PM 46.4 °F 43.5 °F 19.4 °F 34% 30.43 in 10.0 mi North 5.8 mph - N/A   Clear
1:53 PM 46.9 °F - 19.9 °F 34% 30.45 in 10.0 mi Variable 3.5 mph - N/A   Clear
2:53 PM 50.0 °F - 19.0 °F 29% 30.43 in 10.0 mi West 3.5 mph - N/A   Clear
3:53 PM 48.9 °F - 19.9 °F 32% 30.42 in 10.0 mi West 4.6 mph - N/A   Clear
4:53 PM 39.2 °F 35.0 °F 24.8 °F 56% 30.37 in 10.0 mi SW 5.8 mph - N/A   Clear
5:53 PM 37.9 °F 35.5 °F 21.9 °F 53% 30.42 in 10.0 mi SSW 3.5 mph - N/A   Clear
6:53 PM 35.1 °F 30.1 °F 23.0 °F 61% 30.41 in 10.0 mi South 5.8 mph - N/A   Clear
7:53 PM 30.0 °F 24.1 °F 21.9 °F 72% 30.39 in 10.0 mi SSE 5.8 mph - N/A   Clear
8:53 PM 28.9 °F 21.1 °F 21.9 °F 75% 30.37 in 10.0 mi SSW 8.1 mph - N/A   Clear
9:53 PM 30.9 °F 22.2 °F 23.0 °F 72% 30.33 in 10.0 mi South 10.4 mph - N/A   Clear
10:53 PM 30.2 °F 22.6 °F 21.2 °F 69% 30.27 in 10.0 mi South 8.1 mph - N/A   Clear
11:53 PM 33.1 °F 24.9 °F 24.1 °F 70% 30.28 in 10.0 mi SSW 10.4 mph - N/A   Clear